Showing default

6GSTARLAB, 66683

Orbit data source: Space-Track

6GSTARLAB, 66683 is a Spanish payload satellite in SSO that was launched on Fri, 28 Nov 2025 UTC via an FALCON 9 launch vehicle from the Air Force Western Test Range (AFWTR). Payload-class satellites include a variety of spacecraft equipped with specific instruments for various scientific and technological missions. These include communications satellites like Starlink; space stations such as the ISS; scientific satellites like the Hubble; Earth observation satellites from companies like Planet Labs, Umbra, and HawkEye 360; GPS; miniature CubeSats for education and research; and military/defense satellites.

Loading next visibility...
Identifier
66683, 2025-276T
Orbit
SSO
Country
Flag of ESES / SPN
Related business
Manufacturer
Open Cosmos
Mission
Operational Commercial Communications
Bus & Motor
CUBESAT 6U, Unknown motor
Mass
12 kg wet, 12 kg dry
Launch date (UTC)
2025-11-28 (6 months ago)
Launch vehicle
FALCON 9
Launch site
Air Force Western Test Range (AFWTR)
Object type
Payload
Rocket body
Debris
Shape & HBR
Box + 2 Pan, 0.3 m
Radar Cross Section
0.104 m², Medium (>0.1 m² and < 1m²)

Expand to show TLE details & history
Last TLE update: 6 days ago

TLE from 6 days ago
0 6GSTARLAB
1 66683U 25276T   26155.14056515  .00003738  00000-0  18534-3 0  9992
2 66683  97.4244 228.7679 0006958  52.1052 308.0811 15.18321385 28429
Epoch: 2026-06-04T03:22Z
TLE epoch observation values (Epoch: 2026-06-04T03:22:24.828Z)
Latitude
Longitude
-74.42465°
Altitude
511.046 km
Speed
7.61 km/s
True Right ascension
15h 15m 04s
True Declination
0° 00' 00"
Sunlit
Object was in full shadow at epoch
Visualization orbit readout
Latitude
Unknown
Longitude
Unknown
Altitude
Unknown
Speed
Unknown
Apparent Right ascension
Unknown
Apparent Declination
Unknown
Sunlit
N/A
Visualization observer readout
Local Sidereal Time
22:12:29
Azimuth
Unknown
Elevation
Unknown
Doppler factor
Unknown
Orbital elements
Apogee altitude
512.674 km
Perigee altitude
503.091 km
Semi-major axis
6,886.019 km
Eccentricity
0.0007
Inclination
97.4244°
RAAN
228.7679°
Arg. of periapsis
52.1052°
True anomaly
308.01831°
Mean anomaly
308.0811°
Eccentric anomaly
308.04971°
Mean motion
3.79831 °/min
Orbital period
94.78 mins
BSTAR
0.00018534
Loading maneuver chart data...
Computing Atmospheric mass density...
Loading historical data...
Loading historical data...
Loading historical data...
Loading historical data...
Loading historical data...
Loading historical data...
Loading historical data...

Documentation

Showing up to 5 results
|